Location: Gugi
(45.4667°N, 11.1000°E)
Time: 14:02:30
(UTC+00:00)

FengYun 1-2 T - Pass Details

Date: 17 November 2019
Orbit: 846 x 882 km, 98.7° (Epoch: 06 December)

Event Time Altitude Azimuth Distance (km) Brightness Sun altitude
Rises 16:47:34 0° 146° (SE) 3,419 7.2 -11.2°
Reaches altitude 10° 16:50:01 10° 141° (SE) 2,482 6.4 -11.6°
Maximum altitude 16:55:15 48° 69° (ENE) 1,110 4.4 -12.5°
Drops below altitude 10° 17:00:30 10° 356° (N) 2,483 6.5 -13.4°
Sets 17:02:57 0° 351° (N) 3,420 7.3 -13.8°
